Wetterdaten: Sonntag, 22.02.2015
Datum Zeit Temp. A. Feuchte A. Luftdruck Regen Wind Richtung Richtung Sonnenschein ET UV Solar Taupunkt Windchill Windben Empfang
22.02.2015 00:00 0,7 C 73 % 1000,0 hPa 0,0 l/m 0,0 km/h (0 Bft) W-SW 252 0 min 0,000 mm 0,0 UV-I 0 W/m -3,6 C 0,7 C 0,0 km/h (0 Bft) 0,00 %
22.02.2015 00:15 0,9 C 71 % 999,8 hPa 0,0 l/m 0,0 km/h (0 Bft) S-SW 198 0 min 0,000 mm 0,0 UV-I 0 W/m -3,7 C 0,9 C 0,0 km/h (0 Bft) 0,00 %
22.02.2015 00:30 0,9 C 71 % 999,7 hPa 0,0 l/m 0,0 km/h (0 Bft) S-SW 200 0 min 0,000 mm 0,0 UV-I 0 W/m -3,7 C 0,9 C 0,0 km/h (0 Bft) 0,00 %
22.02.2015 00:45 1,0 C 70 % 999,8 hPa 0,0 l/m 0,0 km/h (0 Bft) SW 234 0 min 0,000 mm 0,0 UV-I 0 W/m -3,8 C 1,0 C 0,0 km/h (0 Bft) 0,00 %
22.02.2015 01:00 0,9 C 70 % 999,9 hPa 0,0 l/m 0,0 km/h (0 Bft) S 188 0 min 0,000 mm 0,0 UV-I 0 W/m -3,9 C 0,9 C 0,0 km/h (0 Bft) 0,00 %
22.02.2015 01:15 0,8 C 70 % 1000,3 hPa 0,0 l/m 0,0 km/h (0 Bft) S-SW 211 0 min 0,000 mm 0,0 UV-I 0 W/m -4,0 C 0,8 C 0,0 km/h (0 Bft) 0,00 %
22.02.2015 01:30 1,0 C 70 % 1000,3 hPa 0,0 l/m 0,0 km/h (0 Bft) SW 216 0 min 0,000 mm 0,0 UV-I 0 W/m -3,8 C 1,0 C 0,0 km/h (0 Bft) 0,00 %
22.02.2015 01:45 1,1 C 69 % 1000,4 hPa 0,0 l/m 0,7 km/h (0 Bft) W-SW 253 0 min 0,000 mm 0,0 UV-I 0 W/m -3,9 C 1,1 C 4,0 km/h (1 Bft) 0,00 %
22.02.2015 02:00 1,2 C 69 % 1000,3 hPa 0,0 l/m 0,4 km/h (0 Bft) S-SW 197 0 min 0,000 mm 0,0 UV-I 0 W/m -3,8 C 1,2 C 4,0 km/h (1 Bft) 0,00 %
22.02.2015 02:15 1,3 C 69 % 1000,5 hPa 0,0 l/m 0,7 km/h (0 Bft) W-SW 256 0 min 0,000 mm 0,0 UV-I 0 W/m -3,7 C 1,3 C 4,0 km/h (1 Bft) 0,00 %
22.02.2015 02:30 1,4 C 69 % 1000,7 hPa 0,0 l/m 0,0 km/h (0 Bft) SW 221 0 min 0,000 mm 0,0 UV-I 0 W/m -3,7 C 1,4 C 0,0 km/h (0 Bft) 0,00 %
22.02.2015 02:45 1,1 C 70 % 1000,8 hPa 0,0 l/m 0,0 km/h (0 Bft) S 186 0 min 0,000 mm 0,0 UV-I 0 W/m -3,7 C 1,1 C 0,0 km/h (0 Bft) 0,00 %
22.02.2015 03:00 0,8 C 71 % 1001,2 hPa 0,0 l/m 0,0 km/h (0 Bft) S-SW 202 0 min 0,000 mm 0,0 UV-I 0 W/m -3,8 C 0,8 C 0,0 km/h (0 Bft) 0,00 %
22.02.2015 03:15 0,7 C 71 % 1001,0 hPa 0,0 l/m 0,0 km/h (0 Bft) S-SW 196 0 min 0,000 mm 0,0 UV-I 0 W/m -3,9 C 0,7 C 0,0 km/h (0 Bft) 0,00 %
22.02.2015 03:30 0,8 C 71 % 1001,0 hPa 0,0 l/m 1,4 km/h (1 Bft) W-SW 255 0 min 0,000 mm 0,0 UV-I 0 W/m -3,8 C 0,8 C 4,0 km/h (1 Bft) 0,00 %
22.02.2015 03:45 0,8 C 71 % 1001,5 hPa 0,0 l/m 0,0 km/h (0 Bft) S-SW 209 0 min 0,000 mm 0,0 UV-I 0 W/m -3,8 C 0,8 C 0,0 km/h (0 Bft) 0,00 %
22.02.2015 04:00 0,7 C 71 % 1001,5 hPa 0,0 l/m 0,0 km/h (0 Bft) SW 215 0 min 0,000 mm 0,0 UV-I 0 W/m -3,9 C 0,7 C 0,0 km/h (0 Bft) 0,00 %
22.02.2015 04:15 0,8 C 72 % 1001,7 hPa 0,0 l/m 0,0 km/h (0 Bft) S 187 0 min 0,000 mm 0,0 UV-I 0 W/m -3,7 C 0,8 C 0,0 km/h (0 Bft) 0,00 %
22.02.2015 04:30 0,7 C 72 % 1001,9 hPa 0,0 l/m 0,0 km/h (0 Bft) S 171 0 min 0,000 mm 0,0 UV-I 0 W/m -3,8 C 0,7 C 0,0 km/h (0 Bft) 0,00 %
22.02.2015 04:45 0,7 C 72 % 1002,1 hPa 0,0 l/m 0,4 km/h (0 Bft) W-SW 255 0 min 0,000 mm 0,0 UV-I 0 W/m -3,8 C 0,7 C 4,0 km/h (1 Bft) 0,00 %
22.02.2015 05:00 0,7 C 72 % 1002,2 hPa 0,0 l/m 0,0 km/h (0 Bft) S-SO 149 0 min 0,000 mm 0,0 UV-I 0 W/m -3,8 C 0,7 C 0,0 km/h (0 Bft) 0,00 %
22.02.2015 05:15 0,7 C 73 % 1002,1 hPa 0,0 l/m 0,4 km/h (0 Bft) W-SW 256 0 min 0,000 mm 0,0 UV-I 0 W/m -3,6 C 0,7 C 4,0 km/h (1 Bft) 0,00 %
22.02.2015 05:30 0,8 C 73 % 1002,4 hPa 0,0 l/m 0,0 km/h (0 Bft) W-SW 254 0 min 0,000 mm 0,0 UV-I 0 W/m -3,5 C 0,8 C 0,0 km/h (0 Bft) 0,00 %
22.02.2015 05:45 0,7 C 73 % 1002,6 hPa 0,0 l/m 0,0 km/h (0 Bft) W-SW 254 0 min 0,000 mm 0,0 UV-I 0 W/m -3,6 C 0,7 C 0,0 km/h (0 Bft) 0,00 %
22.02.2015 06:00 0,7 C 73 % 1002,7 hPa 0,0 l/m 0,0 km/h (0 Bft) W-SW 254 0 min 0,000 mm 0,0 UV-I 0 W/m -3,6 C 0,7 C 0,0 km/h (0 Bft) 0,00 %
22.02.2015 06:15 0,6 C 74 % 1003,0 hPa 0,0 l/m 0,0 km/h (0 Bft) S 184 0 min 0,000 mm 0,0 UV-I 0 W/m -3,5 C 0,6 C 0,0 km/h (0 Bft) 0,00 %
22.02.2015 06:30 0,5 C 75 % 1003,0 hPa 0,0 l/m 0,0 km/h (0 Bft) W-SW 252 0 min 0,000 mm 0,0 UV-I 0 W/m -3,4 C 0,5 C 0,0 km/h (0 Bft) 0,00 %
22.02.2015 06:45 0,7 C 74 % 1003,3 hPa 0,0 l/m 0,0 km/h (0 Bft) SW 226 0 min 0,000 mm 0,0 UV-I 0 W/m -3,4 C 0,7 C 0,0 km/h (0 Bft) 0,00 %
22.02.2015 07:00 0,6 C 74 % 1003,7 hPa 0,0 l/m 0,0 km/h (0 Bft) S-SW 196 0 min 0,000 mm 0,0 UV-I 0 W/m -3,5 C 0,6 C 0,0 km/h (0 Bft) 0,00 %
22.02.2015 07:15 0,5 C 75 % 1003,8 hPa 0,0 l/m 0,0 km/h (0 Bft) S-SW 213 0 min 0,000 mm 0,0 UV-I 0 W/m -3,4 C 0,5 C 0,0 km/h (0 Bft) 0,00 %
22.02.2015 07:30 0,5 C 75 % 1004,2 hPa 0,0 l/m 0,0 km/h (0 Bft) S-SW 202 0 min 0,000 mm 0,0 UV-I 6 W/m -3,4 C 0,5 C 0,0 km/h (0 Bft) 0,00 %
22.02.2015 07:45 0,7 C 75 % 1004,4 hPa 0,0 l/m 0,0 km/h (0 Bft) S-SW 211 0 min 0,000 mm 0,0 UV-I 23 W/m -3,2 C 0,7 C 0,0 km/h (0 Bft) 0,00 %
22.02.2015 08:00 1,0 C 74 % 1004,5 hPa 0,0 l/m 0,0 km/h (0 Bft) S-SW 198 0 min 0,000 mm 1,0 UV-I 44 W/m -3,1 C 1,0 C 0,0 km/h (0 Bft) 0,00 %
22.02.2015 08:15 1,6 C 71 % 1004,7 hPa 0,0 l/m 0,0 km/h (0 Bft) S-SW 201 0 min 0,000 mm 1,0 UV-I 65 W/m -3,1 C 1,6 C 0,0 km/h (0 Bft) 0,00 %
22.02.2015 08:30 2,0 C 70 % 1004,8 hPa 0,0 l/m 0,0 km/h (0 Bft) S-SW 199 0 min 0,000 mm 1,0 UV-I 87 W/m -2,9 C 2,0 C 0,0 km/h (0 Bft) 0,00 %
22.02.2015 08:45 2,5 C 73 % 1005,0 hPa 0,0 l/m 0,0 km/h (0 Bft) S-SW 207 0 min 0,000 mm 1,0 UV-I 103 W/m -1,8 C 2,5 C 0,0 km/h (0 Bft) 0,00 %
22.02.2015 09:00 2,8 C 72 % 1005,2 hPa 0,0 l/m 0,4 km/h (0 Bft) W-SW 254 0 min 0,000 mm 1,0 UV-I 128 W/m -1,7 C 2,8 C 4,0 km/h (1 Bft) 0,00 %
22.02.2015 09:15 3,2 C 71 % 1004,9 hPa 0,0 l/m 1,8 km/h (1 Bft) W-SW 253 0 min 0,000 mm 2,0 UV-I 164 W/m -1,5 C 3,2 C 4,0 km/h (1 Bft) 0,00 %
22.02.2015 09:30 3,4 C 71 % 1005,1 hPa 0,0 l/m 2,9 km/h (1 Bft) W 279 0 min 0,000 mm 2,0 UV-I 156 W/m -1,3 C 3,4 C 4,0 km/h (1 Bft) 0,00 %
22.02.2015 09:45 3,5 C 70 % 1005,6 hPa 0,0 l/m 2,2 km/h (1 Bft) W-SW 255 0 min 0,000 mm 2,0 UV-I 152 W/m -1,4 C 3,5 C 4,0 km/h (1 Bft) 0,00 %
22.02.2015 10:00 3,5 C 72 % 1005,7 hPa 0,0 l/m 3,2 km/h (1 Bft) W-SW 252 0 min 0,000 mm 2,0 UV-I 148 W/m -1,1 C 3,5 C 7,9 km/h (2 Bft) 0,00 %
22.02.2015 10:15 3,4 C 72 % 1004,5 hPa 0,0 l/m 0,0 km/h (0 Bft) W-SW 255 0 min 0,000 mm 2,0 UV-I 130 W/m -1,2 C 3,4 C 0,0 km/h (0 Bft) 0,00 %
22.02.2015 10:30 3,8 C 70 % 1004,5 hPa 0,0 l/m 0,7 km/h (0 Bft) S-SW 210 0 min 0,000 mm 2,0 UV-I 163 W/m -1,2 C 3,8 C 4,0 km/h (1 Bft) 0,00 %
22.02.2015 10:45 4,2 C 69 % 1004,6 hPa 0,0 l/m 0,0 km/h (0 Bft) SW 230 0 min 0,000 mm 2,0 UV-I 196 W/m -1,0 C 4,2 C 0,0 km/h (0 Bft) 0,00 %
22.02.2015 11:00 4,3 C 68 % 1005,0 hPa 0,0 l/m 1,4 km/h (1 Bft) W 281 0 min 0,000 mm 2,0 UV-I 168 W/m -1,1 C 4,3 C 4,0 km/h (1 Bft) 0,00 %
22.02.2015 11:15 4,5 C 68 % 1005,3 hPa 0,0 l/m 0,4 km/h (0 Bft) SW 230 0 min 0,000 mm 2,0 UV-I 186 W/m -0,9 C 4,5 C 4,0 km/h (1 Bft) 0,00 %
22.02.2015 11:30 4,3 C 68 % 1005,7 hPa 0,0 l/m 0,7 km/h (0 Bft) W-SW 252 0 min 0,000 mm 2,0 UV-I 150 W/m -1,1 C 4,3 C 4,0 km/h (1 Bft) 0,00 %
22.02.2015 11:45 4,5 C 68 % 1005,5 hPa 0,0 l/m 0,0 km/h (0 Bft) W-SW 255 0 min 0,000 mm 2,0 UV-I 147 W/m -0,9 C 4,5 C 0,0 km/h (0 Bft) 0,00 %
22.02.2015 12:00 4,7 C 68 % 1005,5 hPa 0,0 l/m 2,9 km/h (1 Bft) W-NW 287 0 min 0,000 mm 2,0 UV-I 140 W/m -0,7 C 4,7 C 4,0 km/h (1 Bft) 0,00 %
22.02.2015 12:15 4,6 C 68 % 1005,8 hPa 0,0 l/m 1,4 km/h (1 Bft) SW 231 0 min 0,000 mm 1,0 UV-I 139 W/m -0,8 C 4,6 C 4,0 km/h (1 Bft) 0,00 %
22.02.2015 12:30 4,5 C 68 % 1005,8 hPa 0,0 l/m 0,4 km/h (0 Bft) W-SW 253 0 min 0,000 mm 1,0 UV-I 126 W/m -0,9 C 4,5 C 4,0 km/h (1 Bft) 0,00 %
22.02.2015 12:45 4,6 C 68 % 1005,5 hPa 0,0 l/m 0,7 km/h (0 Bft) W-SW 256 0 min 0,000 mm 1,0 UV-I 162 W/m -0,8 C 4,6 C 4,0 km/h (1 Bft) 0,00 %
22.02.2015 13:00 4,8 C 67 % 1005,5 hPa 0,0 l/m 4,0 km/h (1 Bft) SW 227 0 min 0,000 mm 2,0 UV-I 138 W/m -0,8 C 4,8 C 7,9 km/h (2 Bft) 0,00 %
22.02.2015 13:15 4,9 C 66 % 1005,6 hPa 0,0 l/m 5,4 km/h (1 Bft) W-SW 256 0 min 0,000 mm 2,0 UV-I 171 W/m -0,9 C 4,9 C 7,9 km/h (2 Bft) 0,00 %
22.02.2015 13:30 5,2 C 66 % 1005,5 hPa 0,0 l/m 2,2 km/h (1 Bft) S-SW 206 0 min 0,000 mm 2,0 UV-I 175 W/m -0,6 C 5,2 C 4,0 km/h (1 Bft) 0,00 %
22.02.2015 13:45 5,0 C 66 % 1005,6 hPa 0,0 l/m 3,2 km/h (1 Bft) SW 223 0 min 0,000 mm 2,0 UV-I 175 W/m -0,8 C 5,0 C 4,0 km/h (1 Bft) 0,00 %
22.02.2015 14:00 4,9 C 67 % 1005,9 hPa 0,0 l/m 4,7 km/h (1 Bft) W-SW 255 0 min 0,000 mm 1,0 UV-I 147 W/m -0,7 C 4,9 C 7,9 km/h (2 Bft) 0,00 %
22.02.2015 14:15 4,9 C 67 % 1006,0 hPa 0,0 l/m 1,8 km/h (1 Bft) W-SW 253 0 min 0,000 mm 1,0 UV-I 132 W/m -0,7 C 4,9 C 4,0 km/h (1 Bft) 0,00 %
22.02.2015 14:30 4,7 C 67 % 1006,1 hPa 0,0 l/m 4,7 km/h (1 Bft) W-SW 252 0 min 0,000 mm 1,0 UV-I 128 W/m -0,9 C 4,7 C 7,9 km/h (2 Bft) 0,00 %
22.02.2015 14:45 4,7 C 67 % 1006,3 hPa 0,0 l/m 2,9 km/h (1 Bft) W-SW 251 0 min 0,000 mm 1,0 UV-I 129 W/m -0,9 C 4,7 C 7,9 km/h (2 Bft) 0,00 %
22.02.2015 15:00 4,6 C 70 % 1006,7 hPa 0,0 l/m 0,4 km/h (0 Bft) W-SW 255 0 min 0,000 mm 1,0 UV-I 101 W/m -0,4 C 4,6 C 4,0 km/h (1 Bft) 0,00 %
22.02.2015 15:15 4,3 C 72 % 1006,9 hPa 0,0 l/m 2,9 km/h (1 Bft) SW 228 0 min 0,000 mm 1,0 UV-I 84 W/m -0,3 C 4,3 C 4,0 km/h (1 Bft) 0,00 %
22.02.2015 15:30 3,6 C 76 % 1007,2 hPa 0,0 l/m 0,0 km/h (0 Bft) O-SO 109 0 min 0,000 mm 0,0 UV-I 46 W/m -0,2 C 3,6 C 0,0 km/h (0 Bft) 0,00 %
22.02.2015 15:45 3,4 C 78 % 1007,4 hPa 0,0 l/m 0,0 km/h (0 Bft) S 176 0 min 0,000 mm 1,0 UV-I 46 W/m -0,1 C 3,4 C 0,0 km/h (0 Bft) 0,00 %
22.02.2015 16:00 3,3 C 78 % 1007,6 hPa 0,0 l/m 0,0 km/h (0 Bft) S 174 0 min 0,000 mm 0,0 UV-I 45 W/m -0,2 C 3,3 C 0,0 km/h (0 Bft) 0,00 %
22.02.2015 16:15 3,1 C 80 % 1007,9 hPa 0,0 l/m 0,0 km/h (0 Bft) S 180 0 min 0,000 mm 0,0 UV-I 29 W/m -0,0 C 3,1 C 0,0 km/h (0 Bft) 0,00 %
22.02.2015 16:30 2,8 C 81 % 1008,0 hPa 0,3 l/m 0,4 km/h (0 Bft) W-SW 252 0 min 0,000 mm 0,0 UV-I 32 W/m -0,1 C 2,8 C 4,0 km/h (1 Bft) 0,00 %
22.02.2015 16:45 2,6 C 82 % 1008,3 hPa 0,0 l/m 0,0 km/h (0 Bft) S 173 0 min 0,000 mm 0,0 UV-I 21 W/m -0,2 C 2,6 C 0,0 km/h (0 Bft) 0,00 %
22.02.2015 17:00 2,3 C 78 % 1008,6 hPa 0,0 l/m 1,4 km/h (1 Bft) O-SO 118 0 min 0,000 mm 0,0 UV-I 9 W/m -1,1 C 2,3 C 4,0 km/h (1 Bft) 0,00 %
22.02.2015 17:15 2,2 C 79 % 1008,8 hPa 0,0 l/m 0,0 km/h (0 Bft) O-SO 112 0 min 0,000 mm 0,0 UV-I 2 W/m -1,1 C 2,2 C 0,0 km/h (0 Bft) 0,00 %
22.02.2015 17:30 1,9 C 79 % 1009,1 hPa 0,0 l/m 0,0 km/h (0 Bft) SW 215 0 min 0,000 mm 0,0 UV-I 0 W/m -1,3 C 1,9 C 0,0 km/h (0 Bft) 0,00 %
22.02.2015 17:45 1,7 C 80 % 1009,3 hPa 0,0 l/m 0,4 km/h (0 Bft) W-SW 255 0 min 0,000 mm 0,0 UV-I 0 W/m -1,4 C 1,7 C 4,0 km/h (1 Bft) 0,00 %
22.02.2015 18:00 1,5 C 81 % 1009,5 hPa 0,0 l/m 0,7 km/h (0 Bft) SW 230 0 min 0,000 mm 0,0 UV-I 0 W/m -1,4 C 1,5 C 4,0 km/h (1 Bft) 0,00 %
22.02.2015 18:15 1,4 C 82 % 1009,8 hPa 0,0 l/m 0,4 km/h (0 Bft) NW 313 0 min 0,000 mm 0,0 UV-I 0 W/m -1,3 C 1,4 C 4,0 km/h (1 Bft) 0,00 %
22.02.2015 18:30 1,4 C 82 % 1009,9 hPa 0,0 l/m 0,0 km/h (0 Bft) SW 214 0 min 0,000 mm 0,0 UV-I 0 W/m -1,3 C 1,4 C 0,0 km/h (0 Bft) 0,00 %
22.02.2015 18:45 1,4 C 81 % 1009,9 hPa 0,0 l/m 0,0 km/h (0 Bft) S-SO 160 0 min 0,000 mm 0,0 UV-I 0 W/m -1,5 C 1,4 C 0,0 km/h (0 Bft) 0,00 %
22.02.2015 19:00 1,5 C 81 % 1010,0 hPa 0,3 l/m 0,0 km/h (0 Bft) W 280 0 min 0,000 mm 0,0 UV-I 0 W/m -1,4 C 1,5 C 0,0 km/h (0 Bft) 0,00 %
22.02.2015 19:15 1,5 C 81 % 1010,4 hPa 0,0 l/m 0,7 km/h (0 Bft) N-NW 343 0 min 0,000 mm 0,0 UV-I 0 W/m -1,4 C 1,5 C 4,0 km/h (1 Bft) 0,00 %
22.02.2015 19:30 1,5 C 81 % 1010,6 hPa 0,0 l/m 0,0 km/h (0 Bft) S 175 0 min 0,000 mm 0,0 UV-I 0 W/m -1,4 C 1,5 C 0,0 km/h (0 Bft) 0,00 %
22.02.2015 19:45 1,5 C 81 % 1010,7 hPa 0,0 l/m 0,0 km/h (0 Bft) SW 218 0 min 0,000 mm 0,0 UV-I 0 W/m -1,4 C 1,5 C 0,0 km/h (0 Bft) 0,00 %
22.02.2015 20:00 1,5 C 81 % 1010,6 hPa 0,3 l/m 0,0 km/h (0 Bft) W-SW 250 0 min 0,000 mm 0,0 UV-I 0 W/m -1,4 C 1,5 C 0,0 km/h (0 Bft) 0,00 %
22.02.2015 20:15 1,4 C 82 % 1010,5 hPa 0,0 l/m 0,0 km/h (0 Bft) S 191 0 min 0,000 mm 0,0 UV-I 0 W/m -1,3 C 1,4 C 0,0 km/h (0 Bft) 0,00 %
22.02.2015 20:30 1,4 C 82 % 1010,4 hPa 0,0 l/m 0,0 km/h (0 Bft) SW 219 0 min 0,000 mm 0,0 UV-I 0 W/m -1,3 C 1,4 C 0,0 km/h (0 Bft) 0,00 %
22.02.2015 20:45 1,3 C 82 % 1010,1 hPa 0,0 l/m 0,0 km/h (0 Bft) S-SW 204 0 min 0,000 mm 0,0 UV-I 0 W/m -1,4 C 1,3 C 0,0 km/h (0 Bft) 0,00 %
22.02.2015 21:00 1,4 C 82 % 1010,4 hPa 0,0 l/m 0,4 km/h (0 Bft) SW 219 0 min 0,000 mm 0,0 UV-I 0 W/m -1,3 C 1,4 C 4,0 km/h (1 Bft) 0,00 %
22.02.2015 21:15 1,4 C 83 % 1010,4 hPa 0,0 l/m 0,0 km/h (0 Bft) SW 219 0 min 0,000 mm 0,0 UV-I 0 W/m -1,2 C 1,4 C 0,0 km/h (0 Bft) 0,00 %
22.02.2015 21:30 1,4 C 83 % 1010,2 hPa 0,0 l/m 0,0 km/h (0 Bft) S-SW 202 0 min 0,000 mm 0,0 UV-I 0 W/m -1,2 C 1,4 C 0,0 km/h (0 Bft) 0,00 %
22.02.2015 21:45 1,3 C 83 % 1010,1 hPa 0,0 l/m 0,0 km/h (0 Bft) S-SW 202 0 min 0,000 mm 0,0 UV-I 0 W/m -1,3 C 1,3 C 0,0 km/h (0 Bft) 0,00 %
22.02.2015 22:00 1,3 C 83 % 1010,0 hPa 0,0 l/m 0,0 km/h (0 Bft) S-SW 202 0 min 0,000 mm 0,0 UV-I 0 W/m -1,3 C 1,3 C 0,0 km/h (0 Bft) 0,00 %
22.02.2015 22:15 1,3 C 83 % 1009,9 hPa 0,0 l/m 0,0 km/h (0 Bft) S-SW 202 0 min 0,000 mm 0,0 UV-I 0 W/m -1,3 C 1,3 C 0,0 km/h (0 Bft) 0,00 %
22.02.2015 22:30 1,3 C 83 % 1009,7 hPa 0,0 l/m 0,0 km/h (0 Bft) S-SW 202 0 min 0,000 mm 0,0 UV-I 0 W/m -1,3 C 1,3 C 0,0 km/h (0 Bft) 0,00 %
22.02.2015 22:45 1,3 C 83 % 1009,5 hPa 0,0 l/m 0,0 km/h (0 Bft) S-SW 202 0 min 0,000 mm 0,0 UV-I 0 W/m -1,3 C 1,3 C 0,0 km/h (0 Bft) 0,00 %
22.02.2015 23:00 1,3 C 83 % 1009,3 hPa 0,0 l/m 0,0 km/h (0 Bft) S-SW 202 0 min 0,000 mm 0,0 UV-I 0 W/m -1,3 C 1,3 C 0,0 km/h (0 Bft) 0,00 %
22.02.2015 23:15 1,3 C 83 % 1009,1 hPa 0,0 l/m 0,0 km/h (0 Bft) S-SW 202 0 min 0,000 mm 0,0 UV-I 0 W/m -1,3 C 1,3 C 0,0 km/h (0 Bft) 0,00 %
22.02.2015 23:30 1,2 C 84 % 1009,2 hPa 0,0 l/m 0,0 km/h (0 Bft) S-SW 202 0 min 0,000 mm 0,0 UV-I 0 W/m -1,2 C 1,2 C 0,0 km/h (0 Bft) 0,00 %
22.02.2015 23:45 1,2 C 84 % 1009,0 hPa 0,0 l/m 0,0 km/h (0 Bft) S-SW 202 0 min 0,000 mm 0,0 UV-I 0 W/m -1,2 C 1,2 C 0,0 km/h (0 Bft) 0,00 %
_ Min-Zeit 06:30 13:15 00:30 - 00:00 - - - - - - 01:15 06:30 00:00 00:00
Minimum _ 0,5 C 66 % 999,7 hPa - 0,0 km/h (0 Bft) - - - - - - -4,0 C 0,5 C 0,0 km/h (0 Bft) 0,00 %
_ Max-Zeit 13:30 23:30 19:45 16:30 13:15 - - 00:00 00:00 09:15 10:45 16:15 13:30 10:00 00:00
Maximum _ 5,2 C 84 % 1010,7 hPa 0,3 l/m 5,4 km/h
W-SW (1 Bft)
- - 0 min 0,000 mm 2,0 UV-I 196 W/m -0,0 C 5,2 C 7,9 km/h
W-SW (2 Bft)
0,00 %
Durchschnitt _ 2,1 C 74 % 1005,6 hPa #0,9 l/m 0,6 km/h (0 Bft) W-SW - #0 min. #0,000 mm 1,5 UV-I 110 W/m -2,0 C 2,1 C 1,8 km/h (1 Bft) 0,00 %